SCP
0 0 0 0 0 0 0 0 0 0 0 0 0 0 0 0 0 0 0 0 0 0 0 0 0 0 0 0 0 0 0 0 0 0 0 0 0 0 0 0 0 0 0 0
0 0 0 0 0 0 0 0 0 0 0 0 0 0 0 0 0 0 0 0 0 0 0 0 0 0 0 0 0 0 0 0 0 0 0 0 0 0 0 0 0 0 0 0
0 0 0 0 0 0 0 0 0 0 0 0 0 0 0 0 0 0 0 0 0 0 0 0 0 0 0 0 0 0 0 0 0 0 0 0 0 0 0 0 0 0 0 0
0 0 0 0 0 0 0 0 0 0 0 0 0 0 0 0 0 0 0 0 0 0 0 0 0 0 0 0 0 0 0 0 0 0 0 0 0 0 0 0 0 0 0 0
0 0 0 0 0 0 0 0 0 0 0 0 0 0 0 0 0 0 0 0 0 0 0 0 0 0 0 0 0 0 0 0 0 0 0 0 0 0 0 0 0 0 0 0
0 0 0 0 0 0 0 0 0 0 0 0 0 0 0 0 0 0 0 0 0 0 0 0 0 0 0 0 0 0 0 0 0 0 0 0 0 0 0 0 0 0 0 0
0 0 0 0 0 0 0 0 0 0 0 0 0 0 0 0 0 0 0 0 0 0 0 0 0 0 0 0 0 0 0 0 0 0 0 0 0 0 0 0 0 0 0 0
0 0 0 0 0 0 0 0 0 0 0 -0 -0 -0 -0 0 0 0 0 0 0 0 0 0 0 0 0 0 0 0 0 0 0 0 0 0 0 0 0 0 0 0 0 0
0 0 0 0 0 0 0 0 0 0 0 -0 -0 -0 -0 0 0 0 0 0 0 0 0 0 0 0 0 0 0 0 0 0 0 0 0 0 0 0 0 0 0 0 0 0
0 0 0 0 0 0 0 0 0 0 0 0 -0 -0 0 0 0 0 0 0 0 0 0 0 0 0 0 0 0 0 0 0 0 0 0 0 0 0 0 0 0 0 0 0
0 0 0 0 0 0 0 0 0 0 0 0 0 0 0 0 0 0 0 0 0 0 0 0 0 0 0 0 0 0 0 0 0 0 0 0 0 0 0 0 0 0 0 0
0 0 0 0 0 0 0 0 0 0 0 0 0 0 0 0 0 0 0 0 0 0 0 0 0 0 0 0 0 0 0 0 0 0 0 0 0 0 0 0 0 0 0 0
0 0 0 0 0 0 0 0 0 0 0 0 0 0 0 0 0 0 0 0 0 0 0 0 0 0 0 0 0 0 0 0 0 0 0 0 0 0 0 0 0 0 0 0
0 0 0 0 0 0 0 0 0 0 0 0 0 0 0 0 0 0 0 0 0 0 0 0 0 0 0 0 0 0 0 0 0 0 0 0 0 0 0 0 0 0 0 0
0 0 0 0 0 0 0 0 0 0 0 0 0 -0 0 0 0 0 0 0 0 0 0 0 0 0 0 0 0 0 0 0 0 0 0 0 0 0 0 0 0 0 0 0
0 0 0 0 0 0 0 0 0 0 0 0 0 -0 -0 -0 0 0 0 0 0 0 0 0 0 0 0 0 0 0 0 0 0 0 0 0 0 0 0 0 0 0 0 0
0 0 0 0 -0 0 0 0 0 0 0 0 0 0 -0 -0 -0 0 0 0 0 0 0 0 0 0 0 0 0 0 0 0 0 0 0 0 0 0 0 0 0 0 0 0
0 0 0 0 -0 -0 -0 0 0 0 0 0 0 0 -0 -0 -0 0 0 0 0 0 0 0 0 0 0 0 0 0 0 0 0 0 0 0 0 0 0 0 0 0 0 0
0 0 0 0 -0 -0 -0 0 0 0 0 0 0 0 0 -0 -0 0 0 0 0 0 0 0 0 0 0 0 0 0 0 0 0 0 0 0 0 0 0 0 0 0 0 0
0 0 0 0 0 0 0 0 0 0 0 0 0 0 0 0 0 0 0 0 0 0 0 0 0 0 0 0 0 0 0 0 0 0 0 0 0 0 0 0 0 0 0 0
0 0 0 0 0 0 0 0 0 0 0 0 0 0 0 0 -0 0 0 0 0 0 0 0 0 0 0 0 0 0 0 0 0 0 0 0 0 0 0 0 0 0 0 0
0 0 0 0 0 0 0 0 0 0 0 0 0 0 0 0 0 0 0 0 0 0 0 0 0 0 0 0 0 0 0 0 0 0 0 0 0 0 0 0 0 0 0 0
0 0 0 0 0 0 0 0 0 0 0 0 0 0 0 0 0 0 0 0 0 0 0 0 0 0 0 0 0 0 0 0 0 0 0 0 0 0 0 0 0 0 0 0
0 0 0 0 0 0 0 0 0 0 0 0 0 0 0 0 0 0 0 0 0 0 0 0 0 0 0 0 0 0 0 0 0 0 0 0 0 0 0 0 0 0 0 0
0 0 0 0 0 0 0 0 0 0 0 0 0 0 0 0 0 0 0 0 0 0 0 0 0 0 0 0 0 0 0 0 0 0 0 0 0 0 0 0 0 0 0 0
0 0 0 0 0 0 0 0 0 0 0 0 0 0 0 0 0 0 0 0 0 0 0 0 0 0 0 0 0 0 0 0 0 0 0 0 0 0 0 0 0 0 0 0
Wind_Speed
4 5 1 2 2 3 3 3 1 2 1 1 2 3 4 4 4 4 4 4 3 3 1 2 2 2 3 3 3 2 2 2 2 2 2 1 2 2 2 2 3 4 4 4
4 3 3 1 2 3 3 2 1 2 1 0 1 3 3 5 5 6 6 5 4 2 1 1 2 2 2 2 2 2 2 1 1 1 1 1 1 1 1 2 3 3 3 3
3 3 1 3 3 3 1 2 3 2 3 2 1 4 3 2 2 2 3 3 3 4 3 2 1 1 1 1 1 1 1 2 1 1 2 2 2 1 2 2 3 3 3 3
2 4 2 3 1 1 1 2 3 2 0 1 1 3 5 3 3 4 4 4 4 3 3 3 2 1 1 1 0 1 1 1 1 1 1 1 1 1 2 2 2 3 3 3
2 3 2 1 2 2 3 2 2 2 1 1 1 2 6 2 5 6 6 6 5 5 4 3 2 2 2 1 0 0 1 1 2 1 1 1 1 0 1 1 2 2 3 3
1 2 1 2 3 2 1 2 2 2 2 2 3 3 7 5 7 6 6 6 6 5 4 3 2 2 1 0 1 1 1 1 2 2 2 1 1 1 1 2 2 2 2 2
5 3 3 2 2 3 3 4 3 4 2 5 2 3 9 5 5 7 7 6 5 4 4 3 2 2 1 0 0 1 1 2 2 2 2 1 1 0 1 1 2 2 2 2
2 4 4 3 0 1 0 4 5 4 3 4 2 6 7 3 3 3 4 4 4 4 4 3 3 2 2 1 1 1 1 1 1 1 2 1 1 1 1 1 1 2 2 2
1 3 3 2 2 0 1 1 2 4 1 2 5 6 7 1 0 1 2 3 4 4 4 3 3 3 2 2 1 2 1 0 1 1 1 1 1 1 1 1 1 1 2 2
2 1 4 3 2 2 1 2 3 3 2 3 5 5 4 3 3 2 2 3 4 4 4 3 3 3 2 2 1 1 1 0 1 1 1 1 1 1 1 1 1 1 2 2
1 1 4 3 0 1 0 1 2 2 3 3 3 7 4 3 3 4 4 3 4 4 4 4 3 3 2 1 1 1 1 0 1 1 1 1 1 1 1 1 1 1 1 2
0 2 2 4 3 1 2 2 3 3 3 2 2 8 3 2 3 2 2 2 2 3 3 2 2 2 1 1 0 0 0 0 1 1 1 1 1 1 1 1 1 1 2 2
0 2 2 5 3 2 1 2 2 2 2 3 4 9 2 2 2 2 2 2 2 2 2 2 2 2 2 1 1 0 0 1 1 1 1 1 1 1 1 2 2 2 2 2
2 1 4 5 4 2 3 4 3 3 4 5 9 10 8 5 4 3 3 3 2 2 3 3 2 2 2 1 1 0 1 1 1 1 1 1 2 1 2 2 2 2 2 2
2 1 2 5 5 4 6 7 6 8 8 8 9 9 11 7 5 4 3 3 3 3 3 4 3 2 2 1 1 0 1 1 1 1 1 1 1 1 2 2 2 2 2 2
2 1 1 4 4 4 7 10 9 10 8 9 10 13 10 6 3 3 4 4 5 5 5 4 4 3 3 2 2 1 1 1 1 0 1 1 1 1 1 1 2 2 2 2
1 3 1 4 6 5 8 9 10 7 8 8 11 11 4 4 5 5 5 5 6 6 5 5 5 4 4 3 3 2 2 1 0 0 1 1 1 1 1 1 1 2 2 2
4 3 2 2 4 4 8 1 5 6 7 9 8 7 6 7 6 4 5 6 6 6 5 5 4 4 3 3 2 2 1 1 1 1 1 1 1 1 1 1 1 2 2 2
3 4 3 1 2 10 10 4 4 5 8 8 10 9 6 3 3 5 5 5 6 6 5 4 4 4 3 3 3 2 1 1 1 1 2 2 2 2 1 1 2 2 2 2
2 3 4 3 2 7 7 1 2 2 7 5 7 8 5 2 2 6 3 3 4 3 2 3 3 3 3 3 3 3 2 2 3 3 3 2 2 2 2 2 2 2 2 3
2 2 3 4 5 13 8 2 3 3 7 3 6 6 6 7 7 4 1 2 2 2 2 2 3 3 3 3 3 3 3 4 4 2 2 2 2 2 2 2 2 2 2 2
9 7 7 6 5 13 6 7 8 9 3 2 4 5 6 7 5 3 3 3 2 2 2 2 3 3 3 3 4 4 5 4 2 2 2 2 2 2 2 2 2 2 2 2
10 11 9 12 12 6 7 9 7 3 4 4 4 5 5 5 5 5 4 4 4 3 3 3 3 3 3 3 4 5 5 2 2 2 3 3 2 2 2 2 2 2 2 2
6 4 5 8 13 9 8 8 7 6 7 6 5 4 4 6 6 5 5 4 4 4 4 3 3 4 4 4 4 5 3 2 3 3 3 3 2 3 2 2 2 2 3 3
9 8 6 10 10 7 8 11 11 8 6 6 6 5 6 6 6 6 5 5 4 4 3 3 4 5 6 4 5 4 3 3 4 4 4 3 3 3 3 3 3 4 4 5
10 12 12 12 9 8 8 6 7 8 9 9 8 7 6 7 7 6 6 5 4 4 4 4 5 6 6 5 5 5 4 4 5 4 4 3 3 3 3 3 4 6 6 8
Wind_Direction
20 62 58 248 185 149 130 133 160 230 268 25 211 237 232 207 189 192 190 185 180 180 170 88 73 77 74 61 52 42 47 47 48 31 18 7 4 8 17 19 17 14 11 11
46 19 281 264 108 113 117 129 245 304 341 18 251 274 246 215 207 197 194 196 193 176 117 78 60 56 67 70 51 42 30 28 37 9 350 347 355 24 17 3 13 13 9 9
96 291 295 105 90 105 104 185 206 245 337 10 6 307 261 242 209 198 201 198 187 177 176 176 141 84 70 69 57 31 15 31 25 23 44 33 39 19 9 3 7 6 4 7
29 323 37 82 76 138 228 210 188 208 79 296 149 270 263 229 237 226 221 209 202 195 191 189 187 173 193 214 91 57 41 47 38 53 86 68 1 316 322 342 352 358 3 2
353 345 34 46 267 185 206 182 166 180 174 314 219 221 279 216 233 233 223 217 213 205 199 197 201 200 207 204 154 74 54 52 45 47 66 94 40 343 353 1 358 358 354 356
309 317 1 284 280 209 177 84 59 40 76 274 234 193 272 226 222 220 214 214 213 204 199 203 205 194 195 180 79 59 52 36 36 38 45 68 49 357 4 349 341 341 340 349
353 353 346 343 8 9 69 88 41 8 2 253 219 202 249 242 225 207 205 207 209 204 197 201 207 201 202 184 88 76 66 34 31 39 39 29 18 351 291 313 316 324 331 339
27 329 330 352 59 224 147 135 154 186 224 275 271 232 252 258 254 209 193 194 197 205 202 202 206 196 193 201 168 122 97 41 24 32 19 14 10 335 329 319 308 305 311 323
119 284 313 324 313 119 112 154 175 131 53 289 268 275 291 266 290 183 180 190 206 212 208 202 196 193 194 199 199 179 161 82 1 7 3 5 10 353 327 327 338 331 337 336
143 277 307 315 5 6 145 148 103 115 136 277 286 268 257 271 263 246 225 225 223 215 208 207 205 201 201 200 202 159 147 162 329 348 335 348 350 333 326 340 342 339 340 342
73 114 318 350 329 263 67 122 122 122 157 175 277 275 232 234 240 228 238 239 222 214 211 207 202 193 187 181 174 161 155 73 4 332 324 340 339 344 346 330 324 325 336 345
16 110 295 274 267 270 207 199 169 167 235 208 237 271 266 261 263 213 234 256 231 216 205 193 185 168 169 182 177 203 268 335 310 318 329 329 342 347 345 338 333 341 343 348
104 109 8 342 333 353 306 252 202 166 148 197 217 262 309 333 307 258 240 253 241 226 205 191 184 183 188 198 207 218 352 337 341 358 353 342 341 337 326 325 341 357 356 355
83 127 178 213 249 258 271 270 219 178 194 223 230 255 285 294 291 294 273 248 235 225 216 211 209 208 207 201 203 242 335 354 349 0 352 330 320 324 332 343 355 0 360 357
98 178 243 265 278 277 260 256 229 217 215 217 242 252 267 264 260 266 263 252 239 237 230 221 219 220 213 208 226 272 319 342 338 345 354 331 343 3 8 4 0 0 357 350
96 154 318 292 290 289 274 258 238 234 234 240 261 271 265 264 246 244 245 236 238 241 235 224 218 218 216 216 219 230 253 285 285 267 313 333 0 1 353 350 354 352 352 346
143 133 106 283 318 333 281 242 211 218 219 210 232 246 258 255 240 234 233 232 240 242 234 221 217 215 217 209 203 210 220 226 220 274 312 322 325 323 323 338 346 333 332 336
153 134 142 305 5 264 250 216 195 218 243 225 237 247 241 242 250 244 229 230 243 237 222 217 215 211 207 205 202 201 189 181 192 256 284 296 293 287 304 318 309 314 315 307
170 148 130 123 284 282 289 247 186 204 266 230 228 244 252 258 305 281 242 221 228 228 216 207 203 200 195 198 196 181 190 190 204 243 258 269 263 264 279 283 292 298 302 304
93 117 128 141 206 252 257 209 169 123 281 244 205 229 232 149 252 268 248 220 228 224 210 199 185 181 191 203 180 179 210 216 234 245 252 259 252 245 251 265 279 294 292 289
148 153 175 189 231 262 253 193 129 175 252 228 195 213 200 198 223 245 247 240 232 214 208 192 183 192 206 194 176 199 219 233 244 247 254 262 254 250 251 266 284 293 287 295
178 176 192 169 207 254 206 152 193 221 245 224 215 215 212 227 248 249 245 246 234 226 221 200 199 216 210 183 183 212 233 246 247 239 247 253 257 258 260 261 272 282 275 281
203 195 188 195 217 239 183 204 223 214 230 236 225 227 218 234 242 240 234 233 232 228 226 213 207 223 221 199 195 219 239 230 219 231 241 247 252 257 255 248 253 267 270 268
235 199 202 245 256 248 239 244 249 232 234 242 229 224 215 232 240 240 238 238 235 233 228 224 211 223 236 224 219 226 228 201 201 225 238 237 237 250 254 250 243 242 247 258
213 182 208 246 262 281 254 233 237 237 237 242 238 228 226 226 237 234 238 240 239 241 240 223 220 231 239 232 231 230 212 191 207 226 232 236 236 238 244 246 241 243 243 245
196 188 193 227 218 207 238 224 211 216 228 229 229 238 232 220 232 235 237 240 237 237 235 233 236 240 243 235 238 231 209 197 202 222 229 230 232 236 241 252 271 264 263 272